Beaufort, NC

4:12 AM EDT on April 30, 2017 (GMT -0400)
Smith

Weather History for KMRH - March, 2013

Change the Weather History Date:

Sunday, March 31, 2013

  Actual Average Record
Temperature  
Mean Temperature 55 °F -  
Max Temperature 66 °F 67 °F 83 °F (1977)
Min Temperature 46 °F 49 °F 27 °F (1964)
Degree Days  
Heating Degree Days 10    
Growing Degree Days 5 (Base 50)    
Moisture  
Dew Point 51 °F    
Average Humidity 79    
Maximum Humidity 93    
Minimum Humidity 65    
Precipitation  
Precipitation 0.03 in - - ()
Sea Level Pressure  
Sea Level Pressure 29.99 in    
Wind  
Wind Speed 9 mph (SSW)    
Max Wind Speed 25 mph    
Max Gust Speed 32 mph    
Visibility 9 miles    
Events Rain    
Averages and records for this station are not official NWS values.
T = Trace of Precipitation, MM = Missing Value Source: NWS Daily Summary

Daily Weather History Graph

Daily Weather History Graph

Search for Another Location

Airport or City:

Trip Planner

Search our weather history database for the weather conditions in past years. The results will help you decide how hot, cold, wet, or windy it might be!

Date:

Astronomy

Mar. 31, 2013 Rise Set
Actual Time 6:54 AM EDT 7:27 PM EDT
Civil Twilight 6:29 AM EDT 7:52 PM EDT
Nautical Twilight 5:59 AM EDT 8:22 PM EDT
Astronomical Twilight 5:29 AM EDT 8:52 PM EDT
Moon No Moon Rise 9:50 AM EDT (3/31)
Length of Visible Light 13h 23m
Length of Day
12h 32m
Waning Gibbous, 78% of the Moon is Illuminated
Mar 31
Waning Gibbous
Apr 3
Last Quarter
Apr 10
New
Apr 18
First Quarter
Apr 25
Full

Hourly Weather History & Observations

Time (EDT) Temp. Dew Point Humidity Pressure Visibility Wind Dir Wind Speed Gust Speed Precip Events Conditions
12:58 AM 46.9 °F 42.1 °F 83% 30.14 in 10.0 mi ESE 4.6 mph - N/A   Clear
1:58 AM 48.0 °F 43.0 °F 83% 30.12 in 10.0 mi Calm Calm - N/A   Clear
2:58 AM 48.0 °F 44.1 °F 86% 30.11 in 10.0 mi Calm Calm - N/A   Partly Cloudy
3:58 AM 48.9 °F 45.0 °F 86% 30.09 in 10.0 mi Calm Calm - N/A   Clear
4:58 AM 46.9 °F 45.0 °F 93% 30.07 in 9.0 mi Calm Calm - N/A   Scattered Clouds
5:58 AM 48.9 °F 46.9 °F 93% 30.06 in 8.0 mi Calm Calm - N/A   Clear
6:58 AM 50.0 °F 48.0 °F 93% 30.06 in 10.0 mi SE 3.5 mph - N/A   Partly Cloudy
7:58 AM 57.9 °F 50.0 °F 75% 30.05 in 10.0 mi SE 5.8 mph - N/A   Mostly Cloudy
8:58 AM 60.1 °F 51.1 °F 72% 30.05 in 10.0 mi SE 5.8 mph - N/A   Mostly Cloudy
9:58 AM 64.0 °F 53.1 °F 67% 30.02 in 10.0 mi SSE 8.1 mph - N/A   Mostly Cloudy
10:58 AM 62.1 °F 54.0 °F 75% 30.02 in 10.0 mi South 12.7 mph 19.6 mph N/A   Overcast
11:58 AM 63.0 °F 55.0 °F 75% 30.00 in 10.0 mi SSW 17.3 mph - N/A   Overcast
12:58 PM 64.0 °F 53.1 °F 67% 29.98 in 10.0 mi SSW 18.4 mph 24.2 mph N/A   Overcast
1:58 PM 64.9 °F 53.1 °F 65% 29.94 in 10.0 mi SSW 24.2 mph 28.8 mph N/A   Clear
2:58 PM 64.0 °F 53.1 °F 67% 29.91 in 9.0 mi SSW 25.3 mph 32.2 mph N/A   Clear
3:58 PM 63.0 °F 53.1 °F 70% 29.91 in 9.0 mi SSW 23.0 mph 29.9 mph N/A   Mostly Cloudy
4:58 PM 62.1 °F 54.0 °F 75% 29.88 in 8.0 mi SSW 21.9 mph 29.9 mph N/A   Mostly Cloudy
5:58 PM 62.1 °F 53.1 °F 72% 29.89 in 8.0 mi SW 24.2 mph 28.8 mph N/A   Overcast
6:58 PM 61.0 °F 53.1 °F 75% 29.89 in 8.0 mi SW 21.9 mph 29.9 mph N/A   Overcast
7:58 PM 59.0 °F 53.1 °F 81% 29.88 in 9.0 mi SW 18.4 mph - N/A   Clear
8:58 PM 59.0 °F 54.0 °F 83% 29.89 in 8.0 mi SW 15.0 mph 24.2 mph N/A   Clear
9:58 PM 60.1 °F 54.0 °F 80% 29.91 in 8.0 mi SW 15.0 mph - N/A   Clear
10:58 PM 60.1 °F 54.0 °F 80% 29.91 in 7.0 mi WSW 13.8 mph 23.0 mph 0.00 in Rain Light Rain
11:58 PM 57.9 °F 55.0 °F 90% 29.90 in 6.0 mi SW 18.4 mph 24.2 mph 0.03 in Rain Light Rain